DW2488 Weather Reports


Display with metric or nautical units.
time (UTC)temp
F
wind
direction
speed
MPH
gust
MPH
rain 1hr
in
rain 24hr
in
rain mn
in
humidity
%
barometer
mb
20260504081112 61 276 0.0 0.0 0.00 0.38 0.38 91 1015.0
20260504045356 64 38 0.0 1.0 0.00 0.38 0.38 92 1014.8
20260504043856 64 46 0.0 4.0 0.00 0.38 0.38 92 1014.7
20260504042353 64 40 0.0 2.0 0.00 0.38 0.38 92 1014.6
20260504040848 64 34 0.0 4.0 0.01 0.38 0.38 92 1015.0
20260504035345 64 53 1.0 4.0 0.02 0.38 0.38 92 1015.0
20260504033843 64 48 1.0 4.0 0.02 0.38 0.38 92 1015.0
20260504032346 64 45 0.0 2.0 0.02 0.38 0.38 92 1015.4
20260504030845 64 43 1.0 4.0 0.02 0.37 0.37 92 1015.6
20260504025337 63 0 0.0 5.0 0.01 0.36 0.36 92 1015.9
20260504023833 63 49 0.0 3.0 0.00 0.35 0.35 92 1016.1
20260504022334 63 30 1.0 4.0 0.01 0.35 0.35 93 1016.2
20260504020816 63 57 0.0 4.0 0.01 0.35 0.35 93 1016.5
20260504015317 63 60 0.0 4.0 0.02 0.35 0.35 92 1016.6
20260504013814 62 36 1.0 5.0 0.03 0.35 0.35 93 1016.6
20260504012319 62 113 0.0 0.0 0.04 0.35 0.35 92 1017.0
20260504010817 62 111 0.0 0.0 0.06 0.35 0.35 92 1017.3
20260504005248 61 110 0.0 0.0 0.08 0.34 0.34 92 1017.3
20260504003755 61 109 0.0 0.0 0.10 0.32 0.32 91 1017.4
20260504002247 60 108 0.0 3.0 0.14 0.31 0.31 90 1017.4
20260504000740 60 109 0.0 2.0 0.19 0.28 0.28 90 1017.7
20260503235240 60 109 0.0 2.0 0.22 0.26 0.26 90 1017.6
20260503233735 60 108 0.0 3.0 0.20 0.22 0.23 89 1017.7
20260503232213 60 109 1.0 3.0 0.15 0.16 0.17 89 1017.9
20260503230716 60 120 2.0 4.0 0.09 0.09 0.09 89 1018.0
20260503225201 60 124 1.0 4.0 0.04 0.04 0.04 89 1017.8
20260503223648 60 0 1.0 3.0 0.02 0.02 0.02 88 1017.5
20260503222141 59 84 0.0 3.0 0.01 0.01 0.01 88 1017.4
20260503220636 59 0 1.0 2.0 0.01 0.01 0.01 88 1017.1
20260503215142 59 0 0.0 2.0 0.00 0.00 0.00 88 1017.1
20260503213618 58 0 0.0 1.0 0.00 0.00 0.00 88 1016.9
20260503212120 58 0 0.0 2.0 0.00 0.00 0.00 88 1016.7
20260503210612 58 0 2.0 4.0 0.00 0.00 0.00 88 1016.3
20260503205117 58 0 1.0 3.0 0.00 0.00 0.00 88 1016.3
20260503203612 58 0 0.0 2.0 0.00 0.00 0.00 88 1016.3
20260503202104 58 0 1.0 2.0 0.00 0.00 0.00 88 1016.2
20260503200603 58 140 1.0 3.0 0.00 0.00 0.00 88 1016.0
20260503195052 57 0 2.0 4.0 0.00 0.00 0.00 88 1015.8
20260503193554 57 0 1.0 4.0 0.00 0.00 0.00 88 1015.9
20260503192049 57 0 2.0 4.0 0.00 0.00 0.00 88 1016.0
20260503190550 57 0 1.0 3.0 0.00 0.00 0.00 88 1015.9
20260503185035 57 0 3.0 5.0 0.00 0.00 0.00 88 1016.0
20260503183524 57 140 2.0 4.0 0.00 0.00 0.00 88 1016.0
20260503182023 56 0 2.0 4.0 0.00 0.00 0.00 88 1016.1
20260503180521 56 0 2.0 5.0 0.00 0.00 0.00 88 1016.1
20260503175022 56 0 2.0 4.0 0.00 0.00 0.00 88 1016.0
20260503173516 56 0 1.0 4.0 0.00 0.00 0.00 88 1016.0
20260503172017 56 0 1.0 3.0 0.00 0.00 0.00 88 1016.1
20260503170536 56 0 2.0 5.0 0.00 0.00 0.00 88 1016.4
20260503150456 57 0 1.0 3.0 0.00 0.00 0.00 87 1017.3
20260503130411 59 0 2.0 4.0 0.00 0.00 0.00 85 1018.3